Regional Weather Roundup
Issued by NWS

Home | Current Version | Previous Version | Text Only | Print | Product List | Glossary Off
Versions: 1 2 3 4 5 6 7 8 9 10 11 12 13 14 15 16 17 18 19 20 21 22 23 24 25 26 27 28 29 30 31 32 33 34 35 36 37 38 39 40 41 42 43 44 45 46 47 48 49 50

000
ASUS45 KTFX 230910
RWRMT
MONTANA REGIONAL WEATHER ROUNDUP
NATIONAL WEATHER SERVICE GREAT FALLS MT
300 AM MDT SAT MAY 23 2015

NOTE: "FAIR" INDICATES FEW OR NO CLOUDS BELOW 12000 FEET WITH NO
SIGNIFICANT WEATHER AND/OR OBSTRUCTIONS TO VISIBILITY.

MTZ001>007-043-231000-
WEST OF THE DIVIDE

CITY           SKY/WX    TMP DP  RH WIND       PRES   REMARKS
KALISPELL      SUNNY     56  36  47 N9        29.96R
MISSOULA       MOCLDY    53  38  56 W5        29.96R
BUTTE          MOCLDY    40  38  93 SE3       30.01R
MULLAN PASS    MOCLDY    50  30  46 VRB3      30.04S
DEER LODGE       N/A     46  39  76 CALM      30.04R
EUREKA           N/A     48  34  57 CALM      30.00S
HAMILTON         N/A     48  43  81 S6        29.97R
LIBBY            N/A     52  37  58 SE3       29.99R
RONAN            N/A     51  39  63 CALM      30.00R
THOMPSON FALLS   N/A     47  40  76 CALM      29.99R
$$

MTZ008-052>055-231000-
SOUTHWEST MONTANA

CITY           SKY/WX    TMP DP  RH WIND       PRES   REMARKS
BOZEMAN        CLOUDY    49  44  83 S3        29.97S
DILLON         CLOUDY    47  43  86 SE6       29.97R
W YELLOWSTONE  CLOUDY    45  39  81 E3        29.99S
THREE FORKS      N/A     50  28  42 CALM      29.97R
TWIN BRIDGES     N/A     50  40  68 NW9       29.95S
$$

MTZ009-010-012-014-046-048-049-054-231000-
EAST SLOPES AND CENTRAL MONTANA

CITY           SKY/WX    TMP DP  RH WIND       PRES   REMARKS
CUT BANK       PTCLDY    43  36  76 N6        30.04R
GREAT FALLS    PTCLDY    52  43  71 E8        29.99R
MALMSTROM AFB  MOCLDY    51  46  83 E9        29.99F
HELENA         PTCLDY    53  42  66 W8        29.98R
CONRAD           N/A     47  44  89 E2        30.05R
$$

MTZ011-013-016-021-045-047-050-051-231000-
NORTH CENTRAL MONTANA

CITY           SKY/WX    TMP DP  RH WIND       PRES   REMARKS
HAVRE          CLOUDY    55  47  74 E8        29.99S
LEWISTOWN      CLOUDY    50  47  89 W3        30.01R
N BAR RANCH    CLOUDY    46  45  93 W5        30.02S
CHINOOK          N/A     54  46  76 CALM      30.01R
FORT BENTON      N/A     55  46  71 CALM      30.00S
$$

MTZ017>020-022>027-061-062-231000-
NORTHEAST MONTANA

CITY           SKY/WX    TMP DP  RH WIND       PRES   REMARKS
GLASGOW        MOCLDY    56  42  59 E12       30.03R
JORDAN           N/A     55  45  68 E8        30.00S
SIDNEY         MOCLDY    50  37  62 CALM      30.08S
WOLF POINT     MOCLDY    53  42  66 E6        30.06R
MALTA            N/A     58  45  62 CALM      29.98R
PLENTYWOOD       N/A     54  36  50 E7        30.10S
SCOBEY           N/A     51  32  48 CALM      30.07R
$$

MTZ028>42-056>058-231000-
SOUTHCENTRAL AND SOUTHEAST MONTANA

CITY           SKY/WX    TMP DP  RH WIND       PRES   REMARKS
BAKER          PTCLDY    41  37  86 SE10      30.05S
BILLINGS       MOCLDY    50  45  83 N6        29.95S
LIVINGSTON     CLOUDY    50  47  89 CALM      29.98R
MILES CITY     PTCLDY    52  39  61 SE8       29.99S
BIG TIMBER       N/A     50  48  93 N3        29.99S
EKALAKA          N/A     42  37  82 SE6       30.01R
FORSYTH          N/A     48  45  87 E3        29.98R
LAUREL           N/A     51  43  74 N3        29.94S
ROUNDUP          N/A     51  41  69 CALM      29.90R
$$

REGIONAL REPORTS...DAKOTAS

CITY           SKY/WX    TMP DP  RH WIND       PRES   REMARKS
WILLISTON      CLEAR     50  38  63 CALM      30.10S
MINOT          CLOUDY    57  39  51 SW9       30.10S
DICKINSON      PTCLDY    40  35  83 E9        30.08S
BEACH          PTSUNNY   41  39  93 E8        30.08R
CROSBY         FAIR      50  41  71 SW10      30.12R
WATFORD CITY   FAIR      45  34  65 CALM      30.09S
BISMARCK       PTCLDY    45  40  82 SE6       30.16R
GRAND FORKS    CLEAR     46  40  79 S7        30.13S
FARGO          CLEAR     53  44  71 S9        30.15S
BUFFALO SD       N/A     43  40  89 E9        29.99F
RAPID CITY     CLOUDY    45  43  93 SE6       30.06R
$$

REGIONAL REPORTS...WYOMING/IDAHO/WASHINGTON

CITY           SKY/WX    TMP DP  RH WIND       PRES   REMARKS
GILLETTE       CLOUDY    46  43  89 SE8       30.00S
SHERIDAN       MOCLDY    47  43  86 SE12      29.95R
BUFFALO WY     CLOUDY    46  44  93 SE13      29.98S
CODY           CLOUDY    48  46  93 NW3       29.97S
YELLOWSTONE LA   N/A     36  34  92 CALM      30.04R
IDAHO FALLS    CLOUDY    51  48  89 CALM      29.92S
SALMON         MOCLDY    48  45  87 CALM      29.94S
BOISE          PTCLDY    57  51  80 CALM      29.88R
SPOKANE        CLOUDY    58  48  69 S6        29.92R
$$

REGIONAL REPORTS...ALBERTA

CITY           SKY/WX    TMP DP  RH WIND       PRES   REMARKS
EDMONTON       CLEAR     45  32  61 CALM      30.06R
CALGARY        CLEAR     45  27  49 VRB2      30.09R
LETHBRIDGE     CLEAR     43  34  70 W5        30.05R
MEDICINE HAT   CLEAR     50  36  57 NE8       30.04R
$$

REGIONAL REPORTS...SASKATCHEWAN

CITY           SKY/WX    TMP DP  RH WIND       PRES   REMARKS
SWIFT CURRENT  CLEAR     46  34  61 E5        30.06S
REGINA         PTCLDY    48  37  66 E9        30.09R
SASKATOON      CLEAR     48  37  66 W3        30.06S
$$



USA.gov is the U.S. government's official web portal to all federal, state and local government web resources and services.